WD1L Weather Reports


time (UTC)temp
F
wind
direction
speed
knots
gust
knots
rain 1hr
in
rain 24hr
in
rain mn
in
humidity
%
barometer
mb
20260507055834 58 212 0.0 0.0 0.00 0.06 0.00 92 1003.8
20260507055334 57 212 0.0 0.0 0.00 0.06 0.00 92 1003.8
20260507054834 58 212 0.0 0.0 0.00 0.06 0.00 92 1003.8
20260507053834 57 212 0.0 0.0 0.00 0.06 0.00 92 1003.8
20260507053334 57 212 0.0 0.0 0.00 0.06 0.00 92 1003.8
20260507052834 57 212 0.0 0.0 0.00 0.06 0.00 92 1003.9
20260507051834 57 212 0.0 0.0 0.00 0.06 0.00 92 1003.9
20260507051334 57 212 0.0 0.0 0.00 0.06 0.00 92 1004.1
20260507050834 57 212 0.0 0.0 0.00 0.06 0.00 92 1004.1
20260507050336 57 212 0.0 0.0 0.00 0.06 0.00 92 1004.1
20260507045334 57 212 0.0 0.0 0.00 0.06 0.00 92 1004.1
20260507044834 57 212 0.0 0.0 0.00 0.06 0.00 92 1004.1
20260507044334 57 212 0.0 0.0 0.00 0.06 0.00 92 1004.1
20260507043834 57 212 0.0 0.0 0.00 0.06 0.00 92 1004.1
20260507043335 57 212 0.0 0.0 0.00 0.06 0.00 92 1004.1
20260507041834 57 212 0.0 0.0 0.00 0.06 0.00 92 1004.0
20260507041335 57 212 0.0 0.0 0.00 0.06 0.00 92 1004.0
20260507040834 57 212 0.0 0.0 0.00 0.06 0.00 92 1004.0
20260507035834 57 212 0.0 0.0 0.00 0.06 0.00 92 1004.1
20260507035335 57 212 0.0 0.0 0.00 0.06 0.00 92 1004.1
20260507034834 57 211 0.0 0.0 0.00 0.06 0.00 92 1004.1
20260507034334 57 211 0.0 0.0 0.00 0.06 0.00 92 1004.4
20260507033834 57 211 0.0 0.0 0.00 0.06 0.00 92 1004.4
20260507032834 57 211 0.0 0.0 0.00 0.06 0.00 92 1004.1
20260507032334 57 211 0.0 0.0 0.00 0.06 0.00 92 1004.1
20260507031834 57 211 0.0 0.0 0.00 0.06 0.00 92 1004.1
20260507031334 57 211 0.0 0.0 0.00 0.06 0.00 92 1004.1
20260507030834 57 211 0.0 0.0 0.00 0.06 0.00 92 1004.1
20260507030336 57 211 0.0 0.0 0.00 0.06 0.00 92 1004.1
20260507025834 57 211 0.0 0.0 0.00 0.06 0.06 92 1003.9
20260507025334 57 213 0.0 0.0 0.00 0.06 0.06 92 1003.9
20260507024834 57 213 0.0 0.0 0.00 0.06 0.06 92 1003.9
20260507023834 57 205 0.0 0.0 0.00 0.06 0.06 92 1003.7
20260507023334 57 205 0.0 0.0 0.00 0.06 0.06 92 1003.7
20260507022835 57 205 0.0 0.0 0.00 0.06 0.06 92 1004.1
20260507022335 57 205 0.0 0.0 0.00 0.06 0.06 92 1004.1
20260507021834 57 205 0.0 0.0 0.00 0.06 0.06 92 1004.1
20260507021334 57 205 0.0 0.0 0.00 0.06 0.06 92 1004.1
20260507015849 57 205 0.0 0.0 0.00 0.06 0.06 92 1004.6
20260507015334 57 205 0.0 0.0 0.00 0.06 0.06 92 1004.6
20260507014834 57 205 0.0 0.0 0.00 0.06 0.06 92 1004.6
20260507014334 57 205 0.0 0.0 0.00 0.06 0.06 92 1004.6
20260507013834 57 205 0.0 0.0 0.00 0.06 0.06 92 1004.6
20260507013335 57 205 0.0 0.0 0.00 0.06 0.06 92 1004.6
20260507012834 57 205 0.0 0.0 0.00 0.06 0.06 92 1004.6
20260507012334 57 205 0.0 0.0 0.00 0.06 0.06 92 1004.6
20260507011835 57 205 0.0 0.0 0.00 0.06 0.06 92 1004.6
20260507011334 57 205 0.0 0.0 0.00 0.06 0.06 92 1004.7
20260507010834 57 205 0.0 0.0 0.00 0.06 0.06 92 1004.7
20260507010334 57 205 0.0 0.0 0.00 0.06 0.06 92 1004.7
20260507005335 57 204 0.0 0.0 0.01 0.06 0.06 92 1004.6
20260507004834 57 204 0.0 0.0 0.01 0.06 0.06 92 1004.6
20260507004334 57 205 0.0 0.0 0.01 0.06 0.06 92 1004.5
20260507003834 57 234 0.0 0.0 0.01 0.06 0.06 91 1004.5
20260507003334 57 234 0.0 0.0 0.01 0.06 0.06 91 1004.5
20260507002834 57 234 0.0 0.0 0.01 0.06 0.06 91 1004.5
20260507002334 57 234 0.0 0.0 0.01 0.06 0.06 91 1004.5
20260507001834 57 234 0.0 0.0 0.01 0.06 0.06 91 1004.5
20260507001334 57 235 0.0 0.0 0.01 0.06 0.06 91 1004.3
20260507000835 57 205 0.0 0.0 0.01 0.06 0.06 91 1004.3
20260507000336 57 205 0.0 0.0 0.01 0.06 0.06 91 1004.3
20260506235835 57 205 0.0 0.0 0.01 0.06 0.06 91 1004.4
20260506235334 57 219 0.0 0.0 0.00 0.05 0.05 91 1004.4
20260506234834 57 215 0.0 0.0 0.00 0.05 0.05 91 1004.4
20260506234334 57 218 0.0 0.9 0.01 0.05 0.05 91 1004.5
20260506233335 57 200 0.0 1.7 0.01 0.05 0.05 91 1004.5
20260506232834 57 219 0.0 0.9 0.01 0.05 0.05 91 1004.6
20260506231834 57 211 0.0 0.0 0.03 0.05 0.05 91 1004.6
20260506231334 57 231 0.0 0.0 0.03 0.05 0.05 91 1004.6
20260506230834 57 200 0.0 0.0 0.03 0.05 0.05 91 1004.6
20260506230334 57 200 0.0 0.0 0.03 0.05 0.05 91 1004.6
20260506225834 57 202 0.0 0.0 0.03 0.05 0.05 91 1004.4
20260506224834 57 203 0.0 0.0 0.03 0.05 0.05 90 1004.4
20260506224334 57 205 0.0 0.0 0.02 0.04 0.04 90 1004.5
20260506223834 58 214 0.0 0.0 0.02 0.04 0.04 90 1004.5
20260506223334 58 215 0.0 0.0 0.02 0.04 0.04 90 1004.5
20260506222834 58 215 0.0 0.0 0.02 0.04 0.04 90 1004.9
20260506222334 58 231 0.0 0.0 0.01 0.03 0.03 90 1004.9
20260506221835 58 218 0.0 4.3 0.00 0.02 0.02 90 1004.9
20260506221334 58 191 0.0 4.3 0.00 0.02 0.02 89 1005.0
20260506220334 58 231 0.0 0.0 0.00 0.02 0.02 89 1005.0
20260506215834 58 208 0.0 0.0 0.00 0.02 0.02 89 1005.1
20260506214834 58 210 0.0 0.0 0.00 0.02 0.02 89 1005.1
20260506214334 58 209 0.0 1.7 0.00 0.02 0.02 89 1005.1
20260506213834 58 205 0.0 1.7 0.00 0.02 0.02 89 1005.1
20260506213334 59 216 0.0 1.7 0.00 0.02 0.02 89 1005.1
20260506212334 59 205 0.0 0.0 0.00 0.02 0.02 89 1005.1
20260506211834 59 206 0.0 0.0 0.00 0.02 0.02 88 1005.1
20260506211334 59 206 0.0 0.0 0.00 0.02 0.02 89 1005.2
20260506210834 59 233 0.0 0.0 0.01 0.02 0.02 89 1005.2
20260506210334 59 221 0.0 2.6 0.01 0.02 0.02 88 1005.2
20260506205834 59 231 0.0 2.6 0.02 0.02 0.02 88 1005.2
20260506205334 59 215 0.0 0.0 0.02 0.02 0.02 88 1005.2
20260506204834 59 214 0.0 0.0 0.02 0.02 0.02 88 1005.2
20260506204334 59 232 0.0 0.0 0.02 0.02 0.02 88 1005.3
20260506203834 59 227 0.0 0.0 0.02 0.02 0.02 88 1005.3
20260506203335 59 236 0.0 0.0 0.02 0.02 0.02 88 1005.3
20260506202334 60 197 0.0 0.0 0.02 0.02 0.02 87 1005.6
20260506201834 60 198 0.0 0.0 0.02 0.02 0.02 88 1005.6
20260506201334 60 200 0.0 0.0 0.02 0.02 0.02 87 1005.6
20260506200834 60 198 0.0 0.0 0.01 0.01 0.01 87 1005.6
20260506195334 61 238 0.0 0.0 0.00 0.00 0.00 85 1005.7
20260506194834 62 202 0.0 0.0 0.00 0.00 0.00 84 1005.8
20260506193834 62 215 0.0 2.6 0.00 0.00 0.00 82 1005.7
20260506193334 63 203 0.0 0.0 0.00 0.00 0.00 81 1005.8
20260506192334 63 255 0.0 2.6 0.00 0.00 0.00 79 1005.7
20260506191834 63 209 0.0 0.0 0.00 0.00 0.00 79 1005.7
20260506190834 64 230 0.0 1.7 0.00 0.00 0.00 79 1005.9
20260506190334 64 207 0.0 1.7 0.00 0.00 0.00 79 1005.9
20260506185835 64 243 0.0 0.0 0.00 0.00 0.00 79 1005.7
20260506185334 64 208 0.0 4.3 0.00 0.00 0.00 78 1005.7
20260506184335 64 203 0.0 3.5 0.00 0.00 0.00 78 1006.0
20260506183334 65 210 0.0 4.3 0.00 0.00 0.00 77 1006.0
20260506182834 65 225 0.0 5.2 0.00 0.00 0.00 76 1006.2
20260506182334 65 207 0.0 5.2 0.00 0.00 0.00 76 1006.2
20260506181834 65 204 0.0 5.2 0.00 0.00 0.00 76 1006.2
20260506181334 66 206 0.0 0.9 0.00 0.00 0.00 76 1006.3
20260506180834 66 193 0.0 4.3 0.00 0.00 0.00 75 1006.3
20260506180334 66 204 0.0 4.3 0.00 0.00 0.00 75 1006.3
20260506175834 67 203 0.0 2.6 0.00 0.00 0.00 74 1006.7
20260506175334 67 203 0.0 5.2 0.00 0.00 0.00 74 1006.7
20260506174834 67 234 0.0 5.2 0.00 0.00 0.00 74 1006.7
20260506174334 67 207 0.0 5.2 0.00 0.00 0.00 74 1006.9
20260506173834 67 206 0.0 5.2 0.00 0.00 0.00 74 1006.9
20260506173334 67 180 5.2 6.1 0.00 0.00 0.00 74 1006.9
20260506172834 68 267 0.0 6.1 0.00 0.00 0.00 72 1006.7
20260506171834 69 198 0.0 6.1 0.00 0.00 0.00 71 1006.7
20260506171334 69 230 0.0 4.3 0.00 0.00 0.00 72 1006.7
20260506170834 68 214 0.0 4.3 0.00 0.00 0.00 73 1006.7
20260506170334 68 184 0.0 5.2 0.00 0.00 0.00 73 1006.7
20260506165834 68 188 0.0 5.2 0.00 0.00 0.00 74 1007.0
20260506165334 68 199 0.0 3.5 0.00 0.00 0.00 73 1007.0
20260506164834 68 194 0.0 7.0 0.00 0.00 0.00 73 1007.0
20260506163834 68 185 0.0 6.1 0.00 0.00 0.00 72 1007.3
20260506162834 68 204 0.0 5.2 0.00 0.00 0.00 73 1007.4
20260506161834 68 183 0.0 4.3 0.00 0.00 0.00 73 1007.4
20260506161334 68 236 0.0 6.1 0.00 0.00 0.00 73 1007.6
20260506160834 68 218 0.0 6.1 0.00 0.00 0.00 72 1007.6
20260506160334 68 214 0.0 3.5 0.00 0.00 0.00 72 1007.6
20260506155334 69 214 0.0 3.5 0.00 0.00 0.00 71 1007.8
20260506154334 69 195 0.0 3.5 0.00 0.00 0.00 72 1008.1
20260506153834 69 215 0.0 3.5 0.00 0.00 0.00 72 1008.1
20260506153334 68 197 0.0 3.5 0.00 0.00 0.00 74 1008.1
20260506152834 68 201 0.0 5.2 0.00 0.00 0.00 73 1008.3
20260506152335 67 194 0.0 5.2 0.00 0.00 0.00 74 1008.3
20260506151834 67 186 0.0 2.6 0.00 0.00 0.00 74 1008.3
20260506151335 67 212 0.0 0.9 0.00 0.00 0.00 74 1008.2
20260506150834 67 203 0.0 4.3 0.00 0.00 0.00 74 1008.2
20260506150334 67 202 0.0 4.3 0.00 0.00 0.00 74 1008.2
20260506145835 67 210 0.0 1.7 0.00 0.00 0.00 74 1008.0
20260506145334 67 232 0.0 1.7 0.00 0.00 0.00 74 1008.0
20260506144834 67 212 0.0 0.0 0.00 0.00 0.00 74 1008.0
20260506144334 67 238 0.0 0.0 0.00 0.00 0.00 74 1007.9
20260506143834 67 232 0.0 0.9 0.00 0.00 0.00 74 1007.9
20260506143334 67 199 0.0 0.9 0.00 0.00 0.00 73 1007.9
20260506142834 67 205 0.0 0.0 0.00 0.00 0.00 75 1007.9
20260506141834 67 224 0.0 1.7 0.00 0.00 0.00 75 1007.9
20260506141334 66 233 0.0 1.7 0.00 0.00 0.00 75 1007.9
20260506140834 66 217 0.0 0.0 0.00 0.00 0.00 76 1007.9
20260506140334 66 176 0.0 0.0 0.00 0.00 0.00 76 1007.9
20260506135834 66 169 0.0 3.5 0.00 0.00 0.00 77 1008.3
20260506135334 65 216 0.0 3.5 0.00 0.00 0.00 78 1008.3
20260506134834 65 214 1.7 2.6 0.00 0.00 0.00 78 1008.3
20260506134334 64 201 0.0 0.9 0.00 0.00 0.00 79 1008.7
20260506133834 64 199 0.0 0.9 0.00 0.00 0.00 79 1008.7
20260506132334 63 208 0.0 1.7 0.00 0.00 0.00 81 1008.6
20260506130334 62 188 0.0 2.6 0.00 0.00 0.00 82 1008.4
20260506125834 62 200 0.0 6.1 0.00 0.00 0.00 82 1008.4
20260506125334 62 232 0.0 6.1 0.00 0.00 0.00 82 1008.4
20260506124834 61 197 0.0 7.8 0.00 0.00 0.00 83 1008.4
20260506124334 61 196 0.0 7.8 0.00 0.00 0.00 83 1008.2
20260506123834 61 200 0.0 3.5 0.00 0.00 0.00 83 1008.2
20260506123334 61 203 0.0 3.5 0.00 0.00 0.00 83 1008.2
20260506122834 61 206 0.0 1.7 0.00 0.00 0.00 84 1008.7
20260506122334 60 208 0.0 1.7 0.00 0.00 0.00 84 1008.7
20260506121834 60 192 0.0 0.0 0.00 0.00 0.00 84 1008.7
20260506121334 60 200 0.0 0.0 0.00 0.00 0.00 84 1008.8
20260506120335 60 207 0.0 0.0 0.00 0.00 0.00 84 1008.8
20260506115334 60 206 0.0 0.0 0.00 0.00 0.00 85 1008.8
20260506114334 60 199 0.0 0.0 0.00 0.00 0.00 85 1009.1
20260506112834 59 199 0.0 0.9 0.00 0.00 0.00 86 1008.9
20260506112334 59 203 0.0 0.0 0.00 0.00 0.00 86 1008.9
20260506111804 58 212 0.0 0.0 0.00 0.00 0.00 87 1008.9
20260506111334 58 196 0.0 0.0 0.00 0.00 0.00 87 1008.8
20260506110834 58 199 0.0 0.0 0.00 0.00 0.00 87 1008.8
20260506110334 58 184 0.0 0.0 0.00 0.00 0.00 87 1008.8
20260506105834 58 203 0.0 0.0 0.00 0.00 0.00 87 1008.9
20260506105334 58 204 0.0 0.0 0.00 0.00 0.00 87 1008.9
20260506104835 58 193 0.0 0.0 0.00 0.00 0.00 87 1008.9
20260506104334 58 200 0.0 0.0 0.00 0.00 0.00 87 1009.0
20260506103834 58 200 0.0 0.0 0.00 0.00 0.00 87 1009.0
20260506103334 58 200 0.0 0.0 0.00 0.00 0.00 88 1009.0
20260506102804 58 200 0.0 0.0 0.00 0.00 0.00 88 1008.7
20260506101334 58 197 0.0 0.0 0.00 0.00 0.00 88 1008.7
20260506100334 57 196 0.0 0.0 0.00 0.00 0.00 88 1008.7
20260506095834 57 196 0.0 0.0 0.00 0.00 0.00 88 1008.8
20260506095334 57 196 0.0 0.0 0.00 0.00 0.00 88 1008.8
20260506094834 57 196 0.0 0.0 0.00 0.00 0.00 88 1008.8
20260506094334 57 196 0.0 0.0 0.00 0.00 0.00 88 1008.7
20260506093834 57 197 0.0 0.0 0.00 0.00 0.00 88 1008.7
20260506093304 57 197 0.0 0.0 0.00 0.00 0.00 87 1008.7
20260506092834 57 197 0.0 0.0 0.00 0.00 0.00 87 1008.7
20260506092334 57 197 0.0 0.0 0.00 0.00 0.00 87 1008.7
20260506091834 57 197 0.0 0.0 0.00 0.00 0.00 87 1008.7
20260506091334 57 197 0.0 0.0 0.00 0.00 0.00 87 1008.7
20260506090834 57 197 0.0 0.0 0.00 0.00 0.00 87 1008.7
20260506090335 57 196 0.0 0.0 0.00 0.00 0.00 87 1008.7
20260506085834 57 197 0.0 0.0 0.00 0.00 0.00 87 1008.8
20260506085334 57 196 0.0 0.0 0.00 0.00 0.00 87 1008.8
20260506084804 57 229 0.0 0.0 0.00 0.00 0.00 87 1008.8
20260506084334 58 229 0.0 0.0 0.00 0.00 0.00 87 1008.8
20260506083834 58 210 0.0 0.0 0.00 0.00 0.00 87 1008.8
20260506083334 58 202 0.0 1.7 0.00 0.00 0.00 87 1008.8
20260506082834 58 208 0.0 1.7 0.00 0.00 0.00 86 1008.8
20260506082305 58 205 0.0 0.0 0.00 0.00 0.00 87 1008.8
20260506081834 58 205 0.0 0.0 0.00 0.00 0.00 86 1008.8
20260506081304 58 205 0.0 0.0 0.00 0.00 0.00 86 1008.9
20260506080804 58 205 0.0 0.0 0.00 0.00 0.00 86 1008.9
20260506080334 58 205 0.0 0.0 0.00 0.00 0.00 86 1008.9
20260506072804 58 196 0.0 0.0 0.00 0.00 0.00 85 1008.8
20260506072335 58 196 0.0 0.0 0.00 0.00 0.00 85 1008.8
20260506071834 58 198 0.0 0.0 0.00 0.00 0.00 85 1008.8
20260506071304 58 198 0.0 0.0 0.00 0.00 0.00 85 1008.8
20260506070804 58 198 0.0 0.0 0.00 0.00 0.00 85 1008.8
20260506070305 58 198 0.0 0.0 0.00 0.00 0.00 85 1008.8
20260506062305 59 212 0.0 0.0 0.00 0.00 0.00 84 1008.6
20260506061834 59 214 0.0 0.0 0.00 0.00 0.00 83 1008.6
20260506061334 59 214 0.0 0.0 0.00 0.00 0.00 83 1008.7
20260506060834 59 216 0.0 0.0 0.00 0.00 0.00 83 1008.7